Lapse_Rate
2.0 1.9 1.6 1.1 0.7 0.3 0.1 0.1 -0.1 -0.3 -0.6 -1.1 -1.6 -2.1 -2.3 -2.7 -2.4 1.4 4.7 6.2 4.6 2.0 3.5 9.5 9.6 9.4 9.5 8.6 8.6 8.5 6.5 6.5 6.5 6.5 6.5 7.4 6.6 7.9 8.4 7.8 8.0 8.3 8.3 8.9 9.5
2.3 1.9 1.7 1.4 1.3 1.1 0.5 0.1 0.0 -0.0 -0.4 -0.6 -1.3 -1.7 -1.9 -2.3 2.5 5.3 5.8 3.2 2.7 2.2 8.7 9.0 8.7 9.0 8.6 8.1 8.2 7.0 6.5 6.5 6.5 6.5 6.5 7.0 7.0 7.4 7.3 7.4 7.4 7.9 8.8 9.3 9.4
2.3 1.9 1.6 1.4 1.2 0.9 0.7 0.6 -0.1 -0.4 -0.4 -0.5 -0.8 -1.4 -1.4 -0.9 6.4 8.5 3.7 1.7 1.3 3.2 9.8 9.5 9.3 8.8 7.6 8.0 7.6 7.1 6.5 6.5 6.8 7.3 7.4 7.1 7.0 7.8 7.0 6.5 7.5 7.5 8.4 9.0 9.1
2.0 1.7 1.2 0.9 0.8 0.6 0.4 0.0 -0.9 -1.0 -1.1 -0.8 -0.5 -1.2 -0.8 4.3 6.5 8.9 2.2 1.5 1.4 7.9 9.6 9.2 8.9 7.9 6.9 6.5 7.7 6.5 7.0 7.0 7.2 7.5 7.3 6.6 7.5 7.0 7.3 7.3 8.4 8.6 8.8 9.0 9.0
1.5 1.2 0.7 0.4 0.4 0.1 -0.2 -0.8 -1.4 -1.8 -1.7 -1.5 -0.8 -0.7 2.6 7.8 8.1 7.6 1.8 1.9 5.2 9.6 9.2 8.8 8.2 7.9 6.5 6.8 7.1 6.5 6.5 7.3 7.6 7.6 7.5 7.6 7.0 6.8 7.2 8.1 8.7 8.8 8.8 8.8 8.9
1.6 1.3 0.8 0.0 -0.1 -0.0 -0.6 -1.1 -1.5 -1.9 -2.4 -1.9 -1.1 -0.2 6.0 6.9 9.5 8.6 7.4 5.7 8.6 9.5 9.2 9.1 8.4 8.5 7.4 7.0 6.7 7.2 7.1 7.1 7.4 7.3 7.4 6.8 6.8 7.3 7.5 8.3 8.3 8.5 8.6 8.9 8.9
1.4 1.1 0.9 0.6 -0.0 -0.1 -1.2 -2.0 -2.0 -2.0 -1.7 -1.8 -1.2 2.3 7.3 8.0 8.6 8.6 9.7 9.3 9.7 9.6 9.0 9.3 9.1 8.3 7.8 6.5 7.8 7.3 6.5 6.5 6.8 7.1 6.6 7.4 6.5 6.5 7.8 8.2 8.0 8.3 8.5 8.8 8.9
1.4 0.7 0.4 0.4 -0.1 -0.4 -1.1 -1.8 -1.5 0.3 -1.1 -1.4 -0.7 4.1 8.0 8.9 8.4 7.4 9.9 9.6 9.9 9.9 9.6 9.6 9.3 8.6 7.8 7.9 7.1 6.5 6.5 6.5 6.5 6.6 7.0 7.0 6.5 6.5 8.0 8.0 7.7 8.0 8.4 8.5 8.7
1.4 0.6 0.0 0.2 -0.4 -0.7 -1.3 -1.4 0.9 1.6 1.0 -0.4 3.3 7.6 7.4 5.2 7.9 9.5 9.8 8.9 9.4 9.6 9.5 9.4 9.0 8.0 7.8 6.5 6.5 6.5 6.5 6.5 6.5 6.6 6.5 6.5 6.5 6.4 8.0 7.9 7.6 8.0 8.3 8.5 8.6
1.5 1.0 0.3 0.1 -0.7 -0.6 -1.4 -0.4 2.5 3.0 5.6 6.7 8.0 7.4 8.1 7.9 9.0 9.4 9.7 9.4 8.9 8.8 8.4 8.2 8.0 6.5 6.5 6.5 6.5 6.5 6.5 6.5 6.5 6.5 6.5 6.5 6.5 6.5 7.5 7.6 7.5 7.8 8.1 8.3 8.5
2.0 1.3 0.6 0.2 -0.5 -0.5 1.5 9.5 8.5 8.2 8.9 7.9 7.8 7.7 8.1 9.0 9.4 9.0 9.5 9.1 8.8 8.2 6.5 7.5 6.5 6.5 6.5 6.5 6.5 6.5 6.5 6.5 6.5 6.5 6.5 6.5 6.5 6.5 7.0 7.4 7.3 7.7 8.0 8.2 8.4
2.7 1.9 0.8 0.2 -0.4 -0.4 7.2 8.8 8.6 8.7 7.4 8.5 8.3 8.5 8.9 9.0 7.7 8.6 9.6 7.8 7.3 6.5 6.4 6.5 6.5 6.5 6.5 6.5 6.5 6.5 6.5 6.5 6.5 6.5 6.5 6.5 6.5 6.5 6.5 6.9 7.4 7.5 7.8 8.0 8.4
2.8 2.1 0.9 0.2 -0.1 6.0 9.3 8.4 9.9 9.8 7.2 7.6 8.4 8.2 8.3 8.7 7.6 7.9 8.9 8.1 6.4 6.5 6.5 6.5 6.5 6.5 6.5 6.5 6.5 6.5 6.5 6.5 6.5 6.5 6.5 6.5 6.5 6.5 6.5 7.1 7.5 7.9 8.1 8.2 8.2
3.3 2.3 1.2 -0.9 5.2 8.0 9.0 10.1 9.7 9.6 6.5 6.5 6.9 7.7 8.4 8.4 6.8 8.8 9.0 8.1 6.7 6.5 6.5 6.5 6.5 6.5 6.5 6.5 6.5 6.5 6.5 6.5 6.5 6.5 6.5 6.5 6.5 6.5 6.5 6.5 6.5 7.4 7.9 8.2 8.4
3.0 2.6 1.5 0.6 7.4 9.0 9.5 9.5 9.1 9.1 6.5 6.5 6.8 9.0 8.4 7.4 7.3 7.6 9.1 8.1 6.5 6.5 6.5 6.5 6.5 6.5 6.5 6.5 6.5 6.5 6.5 6.5 6.5 6.5 6.5 6.5 6.5 6.5 6.5 6.5 6.5 6.7 7.6 8.1 8.6
2.7 2.3 1.3 6.9 9.7 9.8 9.4 8.5 9.1 6.5 6.5 6.5 6.9 6.5 6.5 7.0 7.0 7.7 7.9 8.5 7.9 6.5 6.5 6.5 7.2 6.5 6.5 6.5 6.5 6.5 6.5 6.5 6.5 6.5 6.5 6.5 6.5 6.5 6.5 6.5 6.5 6.8 7.6 8.0 8.4
2.4 2.0 4.3 7.0 9.1 8.9 9.5 9.1 6.5 6.5 6.5 6.5 6.5 6.5 6.5 6.5 6.5 6.5 6.5 6.5 6.5 6.5 6.5 6.5 6.5 6.5 6.7 6.5 6.5 6.5 6.5 6.5 6.5 6.5 6.5 6.5 6.5 6.5 6.5 6.5 6.5 6.5 7.4 8.0 8.4
1.8 1.8 6.0 8.3 9.1 7.8 9.4 6.7 6.5 6.5 6.5 6.5 6.5 6.5 6.5 6.5 6.5 6.5 6.5 6.5 6.5 6.5 6.5 6.5 6.5 6.5 6.5 6.5 6.5 6.5 6.5 6.5 6.5 6.5 6.5 6.5 6.5 6.5 6.5 6.9 7.1 7.5 7.7 8.0 8.2
2.0 9.9 9.8 10.2 8.2 8.8 8.3 6.5 6.5 6.5 6.5 6.5 6.5 6.5 6.5 6.5 6.5 6.5 6.5 6.5 6.5 6.5 6.5 6.5 6.5 6.5 6.5 6.5 6.5 6.5 6.5 6.5 6.5 6.5 6.5 6.5 6.5 6.5 6.5 6.5 6.6 7.1 7.5 7.6 8.0
7.2 9.3 9.4 9.8 9.3 9.4 6.8 6.5 6.5 6.6 6.6 6.5 6.5 6.5 6.5 6.5 6.5 6.5 6.5 6.5 6.5 6.5 6.5 6.5 6.5 6.5 6.5 6.6 6.5 6.5 6.5 6.5 6.5 6.5 6.5 6.5 6.5 6.5 6.5 6.5 6.5 6.5 7.0 7.6 8.0
9.3 8.3 9.6 9.5 10.1 8.2 6.5 6.5 6.5 7.5 7.3 6.5 6.5 6.5 6.5 6.5 6.5 6.5 6.5 6.5 6.5 6.5 6.5 6.5 6.5 6.5 6.5 6.5 6.5 6.5 6.5 6.5 6.5 6.5 6.5 6.5 6.5 6.5 6.5 6.5 6.5 6.5 7.3 7.6 7.9
9.2 6.6 9.8 10.1 7.0 7.1 6.5 6.5 6.1 6.8 7.6 6.6 6.5 6.5 6.5 6.5 6.5 6.5 6.5 6.5 7.0 6.5 6.5 6.5 6.5 6.5 6.5 6.5 6.5 6.5 6.5 6.5 6.5 6.5 6.5 6.5 6.5 6.5 6.5 6.5 6.5 6.8 7.4 7.8 8.0
8.5 8.2 9.8 9.7 6.5 6.5 6.7 6.5 7.0 6.5 6.5 6.5 6.5 6.5 6.5 6.5 6.5 6.5 6.5 6.8 7.2 6.5 6.5 6.5 6.5 6.5 6.5 6.5 6.5 6.5 6.5 6.5 6.5 6.5 6.5 6.5 6.5 6.5 6.5 6.5 6.8 6.8 7.3 7.5 7.7
8.6 6.5 8.0 8.4 8.0 6.6 6.5 6.5 6.5 7.3 6.7 6.9 6.5 6.7 6.5 6.5 6.5 6.5 6.5 6.5 7.1 6.8 6.9 6.8 6.5 6.5 6.5 6.5 6.5 6.5 6.5 6.5 6.5 6.5 6.5 6.5 6.5 6.5 6.5 6.5 6.5 7.0 7.3 7.5 7.7
8.4 6.9 7.8 6.5 6.8 6.6 6.6 6.5 6.5 6.5 7.0 7.2 6.5 6.5 6.5 6.5 6.5 6.5 6.5 6.5 6.6 6.9 6.5 6.5 6.5 6.5 6.5 6.5 6.5 6.5 6.5 6.5 6.5 6.5 6.5 6.5 6.5 6.5 6.5 6.5 6.6 7.2 7.3 7.3 7.5
8.0 7.4 7.8 7.5 7.3 6.6 6.5 6.5 6.5 6.5 6.5 6.5 6.5 6.5 6.5 6.5 6.5 6.5 6.5 6.5 6.5 6.5 6.5 6.5 6.5 6.5 6.5 6.5 6.5 6.5 6.5 6.5 6.5 6.5 6.5 6.5 6.5 6.5 6.7 7.1 7.0 7.2 7.3 7.3 7.5
8.8 8.9 7.9 7.1 6.8 6.5 6.5 6.5 6.5 6.6 7.0 7.0 6.7 6.5 6.5 6.5 7.2 7.6 7.7 7.4 6.8 6.5 6.5 6.5 6.5 6.5 6.5 6.5 6.5 6.5 6.5 6.5 6.5 6.5 6.5 6.5 6.5 6.5 6.5 6.5 6.8 7.1 7.3 7.4 7.6
Wind_Speed
25 25 24 24 25 25 25 24 22 22 21 20 19 18 17 18 19 10 15 9 10 20 12 17 16 15 16 12 6 4 6 7 4 4 10 12 10 7 7 12 7 5 9 21 24
26 26 26 26 26 26 26 25 25 24 22 20 18 17 17 16 13 19 12 13 14 25 18 21 21 20 15 13 7 8 8 2 5 1 5 11 8 11 9 13 11 8 17 25 26
27 28 29 29 29 29 28 27 27 25 23 20 17 16 14 15 9 8 7 21 21 28 20 19 19 19 15 9 11 8 5 1 3 3 3 11 9 8 9 11 13 15 23 27 25
28 28 30 31 32 32 31 30 29 26 23 19 15 13 12 8 5 6 1 23 24 26 19 20 21 21 15 12 13 8 10 5 4 5 1 5 8 9 10 6 14 17 24 28 26
28 29 30 31 33 33 32 32 30 29 24 18 11 8 8 9 11 8 15 18 23 22 23 21 22 21 17 14 11 16 8 7 9 8 6 6 9 7 10 6 16 20 24 25 24
28 29 29 31 33 34 34 33 32 30 24 16 10 7 6 13 2 6 8 21 23 23 24 21 20 19 11 8 14 9 14 9 8 8 5 9 8 9 10 9 17 21 24 24 24
29 30 30 32 34 35 35 33 32 26 20 11 14 9 9 17 0 7 13 19 23 24 25 21 14 20 7 11 9 12 10 11 12 11 7 8 11 12 15 15 18 21 21 23 23
30 32 33 34 35 37 35 32 25 17 4 13 16 9 8 4 14 7 14 16 19 21 19 19 9 20 9 3 8 14 15 14 15 14 8 14 11 16 17 17 19 21 21 22 23
30 32 34 35 36 39 35 26 9 11 12 19 10 7 6 5 11 14 15 16 18 18 13 11 13 17 20 12 12 13 14 19 11 16 9 15 9 16 19 19 19 21 22 21 22
31 32 35 37 38 39 35 15 4 9 7 4 1 6 7 4 8 19 15 13 20 18 15 15 13 16 17 17 17 17 18 16 16 15 13 15 15 6 19 19 19 20 21 22 23
32 34 35 38 37 38 18 5 4 7 7 10 1 5 1 2 8 16 20 22 16 21 17 23 19 26 27 24 20 13 12 18 15 9 13 16 15 12 14 18 19 20 21 22 23
31 33 36 38 37 30 13 5 8 6 15 17 22 24 17 2 9 18 23 18 20 23 22 18 28 23 22 22 21 22 17 19 13 7 9 16 15 13 13 19 20 20 21 22 21
31 33 36 38 34 11 9 9 9 12 8 12 13 14 13 20 12 21 29 24 26 28 30 24 14 24 24 23 23 23 23 18 16 11 14 13 15 15 11 15 18 20 21 20 22
29 32 35 40 10 10 3 14 14 7 6 7 7 6 11 13 13 18 29 27 19 29 28 24 15 26 22 26 25 25 24 18 16 12 13 15 15 19 20 17 18 20 20 23 24
32 32 32 17 8 7 15 17 12 4 7 7 6 8 9 17 6 25 25 28 22 18 28 21 25 23 27 25 24 21 17 18 21 18 17 21 10 16 12 18 19 20 22 23 25
29 32 29 2 4 10 20 15 4 6 9 3 5 6 8 16 9 13 22 28 22 23 24 26 15 23 23 19 23 11 18 15 15 17 19 24 20 17 17 18 18 20 21 23 23
31 31 13 8 10 20 16 5 7 9 6 5 6 5 10 10 18 13 26 31 21 23 28 24 28 19 17 23 20 23 20 11 14 17 20 19 21 20 9 17 20 19 21 23 23
32 31 1 5 18 16 10 7 13 4 8 17 13 18 12 4 12 17 20 26 31 26 17 20 21 29 27 25 23 29 25 13 20 15 18 18 17 22 22 21 7 18 18 20 22
34 5 4 10 16 8 7 8 10 13 14 15 19 11 10 5 6 9 21 23 31 29 26 21 27 26 21 22 24 25 27 25 17 9 9 15 19 16 13 18 23 20 17 20 20
9 4 6 20 12 7 6 5 8 11 15 16 16 5 8 5 8 7 15 6 15 34 7 17 17 20 26 26 26 19 24 22 17 22 20 13 18 13 18 23 19 22 23 19 20
6 4 9 22 8 6 5 8 14 15 12 10 15 14 14 12 9 6 1 7 8 1 6 16 14 22 21 26 26 22 18 23 17 17 13 14 13 16 17 17 22 21 20 21 21
6 4 9 11 3 4 7 10 11 14 14 13 15 17 14 12 11 4 3 9 10 8 12 12 10 13 26 24 25 27 24 27 14 23 20 15 10 8 5 12 18 18 19 20 18
7 4 5 10 5 6 9 12 11 10 10 10 8 15 14 14 6 3 1 5 11 10 2 1 13 15 14 18 24 26 27 24 25 16 21 19 5 8 7 4 3 8 8 10 14
5 5 2 2 0 10 12 10 11 9 5 8 5 11 14 17 12 5 3 3 9 9 11 7 11 21 19 16 18 26 27 29 28 20 19 20 15 13 8 4 7 7 7 6 7
2 4 4 6 7 10 9 12 11 8 9 9 2 6 9 7 10 13 6 10 4 6 6 7 12 7 15 3 5 11 29 30 29 27 26 19 20 19 11 10 7 7 6 3 4
5 4 2 9 6 10 8 8 10 11 12 11 9 12 11 7 12 9 11 7 5 5 5 5 3 6 15 11 9 11 14 16 21 28 27 26 24 13 11 12 19 16 15 14 14
2 5 3 5 8 6 7 8 12 14 8 5 13 15 11 9 12 15 14 14 15 11 8 5 5 7 15 12 11 16 22 21 19 20 18 23 17 16 20 16 15 15 13 14 15
Wind_Direction
352 350 347 344 341 337 335 332 330 327 324 323 323 322 322 320 304 216 241 251 193 166 202 169 185 184 185 195 217 207 241 231 135 191 118 146 134 125 102 138 162 159 150 145 154
350 347 344 341 338 335 332 329 325 322 318 317 317 317 318 320 291 261 237 183 176 166 181 179 180 179 191 201 200 225 263 115 45 46 157 162 164 144 150 152 146 134 116 145 156
349 346 343 339 336 333 329 324 321 317 312 309 309 310 313 308 280 253 82 173 181 176 187 191 178 182 203 198 197 192 255 129 187 197 254 162 176 149 147 174 164 152 148 156 161
347 344 340 336 334 330 326 321 318 313 307 301 297 299 303 274 261 53 126 169 179 187 173 184 179 192 204 202 199 236 238 263 118 129 275 202 157 174 176 95 156 154 160 160 168
346 342 339 336 330 326 324 319 314 308 300 290 278 276 267 228 246 101 116 154 174 188 179 182 190 198 209 199 196 227 238 223 231 255 268 209 195 190 182 137 146 152 165 170 174
345 342 339 334 329 325 324 320 313 307 296 270 237 206 231 248 335 214 170 159 176 186 186 187 195 209 236 212 211 184 237 250 258 243 222 192 176 186 167 154 149 161 171 177 181
344 341 338 332 329 327 325 321 316 306 295 229 193 207 232 242 251 201 184 184 181 192 189 191 199 201 216 213 211 240 234 219 235 229 177 205 170 200 146 164 161 168 176 182 187
343 339 335 332 331 328 328 325 316 322 52 165 172 197 251 180 243 223 189 192 188 203 206 197 190 218 221 346 210 218 223 230 211 198 185 204 210 185 163 173 173 172 177 183 190
342 338 333 332 332 330 328 326 334 63 104 136 159 228 251 114 203 202 188 185 185 197 213 185 211 220 219 235 219 203 211 215 167 191 176 207 225 156 175 184 180 181 179 185 190
342 338 333 332 332 331 323 307 181 154 161 232 98 219 234 229 171 188 187 175 174 165 184 189 200 211 217 213 216 203 219 205 210 189 204 208 243 169 179 201 192 190 185 187 193
341 336 335 332 333 330 324 249 268 192 243 260 253 268 201 33 147 190 176 166 166 179 184 192 199 207 204 214 228 234 216 223 205 169 219 232 237 233 192 204 203 190 196 194 197
339 334 333 331 331 323 304 53 55 319 298 268 248 253 248 331 216 179 180 173 173 185 187 183 216 211 215 209 222 229 227 227 222 183 240 250 238 235 195 210 210 196 202 203 193
338 335 332 330 322 322 39 53 339 321 264 281 228 236 221 209 223 181 191 195 188 189 196 199 206 213 205 212 213 224 222 223 231 206 237 255 252 242 216 205 211 210 206 203 200
336 335 334 330 301 341 38 343 333 308 275 208 208 220 193 192 219 205 203 194 197 202 198 221 199 195 202 215 211 220 222 242 241 230 237 198 252 222 217 203 208 210 207 199 205
333 333 332 334 323 357 327 322 317 235 272 98 137 129 154 198 112 188 191 208 201 200 201 204 214 196 211 210 207 229 220 221 235 245 255 249 248 253 207 216 210 211 206 207 198
332 331 332 177 268 342 328 319 238 227 239 134 127 189 184 214 221 158 184 211 225 216 211 222 206 217 219 214 219 213 227 224 232 236 240 238 242 246 239 213 221 211 212 208 205
331 326 325 313 333 326 318 285 242 241 46 47 359 339 292 218 213 184 194 197 200 207 214 212 225 218 211 214 210 204 199 199 215 223 237 233 233 235 247 235 215 222 208 209 203
328 315 91 310 323 322 302 252 254 314 9 337 317 298 241 192 226 201 195 203 215 206 193 207 217 204 202 210 200 199 207 209 212 219 228 216 239 237 233 234 261 229 211 204 203
319 347 309 347 328 311 285 251 284 12 349 322 312 281 199 206 304 219 215 214 208 216 227 199 227 182 200 200 201 197 216 222 250 217 265 230 218 245 249 229 223 216 218 212 201
325 323 12 345 327 281 269 310 343 344 334 314 298 344 313 341 282 224 188 19 245 211 240 255 221 192 196 198 216 210 203 216 226 240 242 233 238 233 214 219 223 220 217 209 207
297 303 19 340 282 294 349 338 322 329 327 307 304 304 294 304 294 273 92 41 346 230 260 249 233 189 183 203 198 201 208 217 224 223 227 237 242 226 231 216 219 219 215 216 210
324 330 9 329 329 348 354 332 316 321 332 302 282 275 293 301 289 271 143 23 352 297 221 220 231 218 206 202 212 204 205 203 213 211 237 266 244 122 238 228 218 222 218 219 214
341 313 13 327 15 353 337 318 313 328 336 342 314 339 308 274 274 279 41 48 2 1 354 126 222 210 204 206 201 219 200 214 216 232 216 220 224 125 130 117 202 233 228 224 229
316 319 5 311 18 347 335 314 325 332 327 339 343 300 313 263 240 272 305 19 343 2 328 268 250 226 216 204 205 211 213 214 211 223 230 219 235 196 212 214 171 191 206 197 209
324 27 4 322 335 330 307 292 302 337 341 329 64 7 352 290 264 256 302 306 269 9 328 325 228 235 255 308 270 258 216 211 221 222 228 233 222 236 241 245 291 315 301 210 204
309 332 221 296 269 294 297 302 304 342 332 316 325 352 329 324 310 319 328 310 315 324 331 338 218 264 249 232 233 240 231 240 240 233 233 241 248 248 217 249 269 266 282 279 278
298 298 267 270 289 296 302 316 309 312 302 246 323 318 307 300 297 300 293 284 282 291 301 289 285 246 231 216 250 249 229 225 231 233 238 239 247 258 261 259 260 278 277 280 285